Weather History for Iron Mountain, MI

Change the Weather History Date:

Wednesday, December 7, 2011

  Actual Average Record
Temperature  
Mean Temperature 22 °F -  
Max Temperature 26 °F 29 °F 52 °F (1988)
Min Temperature 17 °F 11 °F -18 °F (1972)
Degree Days  
Heating Degree Days 44    
Moisture  
Dew Point 13 °F    
Average Humidity 73    
Maximum Humidity 84    
Minimum Humidity 62    
Precipitation  
Precipitation 0.00 in - - ()
Sea Level Pressure  
Sea Level Pressure 29.91 in    
Wind  
Wind Speed 7 mph (West)    
Max Wind Speed 12 mph    
Max Gust Speed -    
Visibility 10 miles    
Events      
Averages and records for this station are not official NWS values.
T = Trace of Precipitation, MM = Missing Value Source: NWS Daily Summary

Daily Weather History Graph

Daily Weather History Graph

Search for Another Location

Airport:

Trip Planner

Search our weather history database for the weather conditions in past years. The results will help you decide how hot, cold, wet, or windy it might be!

Date:

Astronomy

Dec. 07, 2011 Rise Set
Actual Time 7:19 AM CST 4:08 PM CST
Civil Twilight 6:45 AM CST 4:42 PM CST
Nautical Twilight 6:07 AM CST 5:19 PM CST
Astronomical Twilight 5:31 AM CST 5:55 PM CST
Moon 2:11 PM CST (12/7) 4:30 AM CST (12/7)
Length of Visible Light 9h 56m
Length of Day
8h 48m
Waxing Gibbous, 92% of the Moon is Illuminated
Dec 7
Waxing Gibbous
Dec 10
Full
Dec 17
Last Quarter
Dec 24
New
Jan 1
First Quarter

Hourly Weather History & Observations

Time (CST) Temp. Windchill Dew Point Humidity Pressure Visibility Wind Dir Wind Speed Gust Speed Precip Events Conditions
12:54 AM 18.0 °F 7.7 °F 12.0 °F 78% 29.98 in 10.0 mi SSW 8.1 mph - N/A   Clear
1:54 AM 17.1 °F 10.0 °F 12.0 °F 81% 29.97 in 10.0 mi SSW 4.6 mph - N/A   Clear
2:54 AM 17.1 °F 7.6 °F 10.9 °F 77% 29.94 in 10.0 mi SSW 6.9 mph - N/A   Scattered Clouds
3:54 AM 18.0 °F 9.8 °F 10.9 °F 74% 29.91 in 10.0 mi SW 5.8 mph - N/A   Overcast
4:54 AM 19.0 °F 10.0 °F 10.0 °F 68% 29.88 in 10.0 mi SSW 6.9 mph - N/A   Overcast
5:54 AM 19.9 °F 8.6 °F 9.0 °F 62% 29.89 in 10.0 mi WSW 10.4 mph - N/A   Overcast
7:54 AM 19.0 °F 10.0 °F 10.9 °F 71% 29.89 in 10.0 mi West 6.9 mph - 0.00 in   Overcast
8:54 AM 19.9 °F 9.3 °F 10.9 °F 68% 29.90 in 10.0 mi West 9.2 mph - N/A   Overcast
9:54 AM 19.9 °F 10.1 °F 12.0 °F 71% 29.91 in 10.0 mi West 8.1 mph - N/A   Overcast
10:54 AM 21.0 °F 11.4 °F 12.9 °F 71% 29.91 in 10.0 mi West 8.1 mph - 0.00 in   Overcast
11:06 AM 21.2 °F 13.6 °F 12.2 °F 68% 29.84 in 10.0 mi West 5.8 mph - N/A   Overcast
11:24 AM 21.2 °F 12.6 °F 12.2 °F 68% 29.83 in 10.0 mi WNW 6.9 mph - N/A   Overcast
11:54 AM 21.9 °F 11.7 °F 12.9 °F 68% 29.89 in 10.0 mi West 9.2 mph - N/A   Overcast
12:54 PM 23.0 °F 13.1 °F 15.1 °F 72% 29.88 in 10.0 mi WNW 9.2 mph - N/A   Overcast
1:37 PM 24.8 °F 17.9 °F 15.8 °F 69% 29.82 in 10.0 mi West 5.8 mph - N/A   Overcast
1:54 PM 24.1 °F 17.0 °F 16.0 °F 71% 29.89 in 10.0 mi West 5.8 mph - N/A   Mostly Cloudy
2:42 PM 26.6 °F 17.5 °F 15.8 °F 64% 29.83 in 10.0 mi NW 9.2 mph - N/A   Scattered Clouds
2:54 PM 26.1 °F 16.8 °F 17.1 °F 69% 29.90 in 10.0 mi WNW 9.2 mph - N/A   Clear
3:54 PM 26.1 °F 15.6 °F 16.0 °F 66% 29.93 in 10.0 mi WNW 11.5 mph - N/A   Partly Cloudy
4:54 PM 23.0 °F 18.4 °F 16.0 °F 74% 29.95 in 10.0 mi West 3.5 mph - N/A   Clear
5:54 PM 17.1 °F - 12.9 °F 84% 29.97 in 10.0 mi Calm Calm - N/A   Clear
6:54 PM 18.0 °F - 12.9 °F 81% 29.97 in 10.0 mi Calm Calm - N/A   Clear
7:54 PM 19.0 °F 12.3 °F 14.0 °F 81% 29.98 in 10.0 mi West 4.6 mph - N/A   Clear
8:54 PM 19.0 °F 11.1 °F 14.0 °F 81% 29.97 in 10.0 mi WSW 5.8 mph - N/A   Clear
9:54 PM 19.0 °F 10.0 °F 12.9 °F 77% 29.96 in 10.0 mi West 6.9 mph - N/A   Clear
10:54 PM 18.0 °F 12.7 °F 12.9 °F 81% 29.95 in 10.0 mi WSW 3.5 mph - N/A   Clear
11:54 PM 19.0 °F 12.3 °F 12.9 °F 77% 29.94 in 10.0 mi West 4.6 mph - N/A   Clear